^^
Saratoga-Weather Station Historical Data
Daily Summary for August 03, 2022 Units:  English    Metric   Both
Daily Weekly Monthly Yearly Custom
  High: Low: Average:
Temperature: 95.7 °F 62.2 °F 79.5 °F
Dew Point: 63.1 °F 57.4 °F 59.7 °F
Humidity: 86% 29% 55%
Wind Speed: 8.1mph 0mph 0.9mph
Wind Gust: 10mph - -
Wind- - SE
Pressure: 30 in 29.9 in -
Precipitation: 0 in    
Historical Graphs
 
 
Tabular Data for August 03, 2022
Time Temperature Dew Point Pressure Wind Wind Speed Wind Gust Humidity Rainfall Rate (Hourly) solar
00:03 70.9 °F 59.7 °F 30 in Calm     68% 0 in 0 W/m2
00:08 70.5 °F 59.9 °F 30 in Calm     69% 0 in 0 W/m2
00:13 70.3 °F 59.7 °F 30 in Calm     69% 0 in 0 W/m2
00:18 70.2 °F 59.5 °F 30 in Calm     69% 0 in 0 W/m2
00:23 70 °F 59.7 °F 30 in Calm     70% 0 in 0 W/m2
00:28 69.4 °F 59.5 °F 30 in Calm     71% 0 in 0 W/m2
00:33 69.3 °F 59.5 °F 30 in Calm     71% 0 in 0 W/m2
00:38 69.1 °F 59.4 °F 30 in Calm     71% 0 in 0 W/m2
00:43 68.9 °F 59.5 °F 30 in Calm     72% 0 in 0 W/m2
00:48 68.7 °F 59.4 °F 30 in Calm     72% 0 in 0 W/m2
00:53 68.5 °F 59.5 °F 30 in Calm     73% 0 in 0 W/m2
00:58 68.4 °F 59.4 °F 30 in Calm     73% 0 in 0 W/m2
01:03 68.4 °F 59.4 °F 30 in Calm     73% 0 in 0 W/m2
01:08 68.4 °F 59.4 °F 30 in Calm     73% 0 in 0 W/m2
01:13 68.4 °F 59.4 °F 30 in Calm     73% 0 in 0 W/m2
01:18 68.2 °F 59.2 °F 30 in Calm     73% 0 in 0 W/m2
01:23 68.2 °F 59.5 °F 30 in Calm     74% 0 in 0 W/m2
01:28 68 °F 59.4 °F 30 in Calm     74% 0 in 0 W/m2
01:33 67.8 °F 59.2 °F 30 in Calm     74% 0 in 0 W/m2
01:38 67.6 °F 59.4 °F 30 in Calm     75% 0 in 0 W/m2
01:43 67.5 °F 59.2 °F 30 in Calm     75% 0 in 0 W/m2
01:48 67.5 °F 59.2 °F 30 in Calm     75% 0 in 0 W/m2
01:53 67.3 °F 59.5 °F 30 in Calm   1 mph 76% 0 in 0 W/m2
01:58 67.1 °F 59.4 °F 30 in Calm   1 mph 76% 0 in 0 W/m2
02:03 66.9 °F 59.2 °F 30 in Calm     76% 0 in 0 W/m2
02:08 66.9 °F 59.2 °F 30 in Calm   1 mph 76% 0 in 0 W/m2
02:13 66.7 °F 59 °F 30 in Calm     76% 0 in 0 W/m2
02:18 66.7 °F 59.4 °F 30 in Calm   1 mph 77% 0 in 0 W/m2
02:23 66.6 °F 59.2 °F 30 in Calm     77% 0 in 0 W/m2
02:28 66.6 °F 59.2 °F 30 in Calm     77% 0 in 0 W/m2
02:33 66.6 °F 59.2 °F 30 in Calm     77% 0 in 0 W/m2
02:38 66.4 °F 59 °F 30 in Calm     77% 0 in 0 W/m2
02:43 66.2 °F 59.2 °F 30 in Calm     78% 0 in 0 W/m2
02:48 66 °F 59 °F 30 in Calm     78% 0 in 0 W/m2
02:53 65.8 °F 59.2 °F 30 in Calm     79% 0 in 0 W/m2
02:58 65.8 °F 59.2 °F 30 in Calm     79% 0 in 0 W/m2
03:03 65.7 °F 59 °F 30 in Calm     79% 0 in 0 W/m2
03:08 65.7 °F 59 °F 30 in Calm     79% 0 in 0 W/m2
03:13 65.5 °F 58.8 °F 30 in Calm     79% 0 in 0 W/m2
03:18 65.5 °F 59.2 °F 30 in Calm     80% 0 in 0 W/m2
03:23 65.3 °F 59 °F 30 in Calm     80% 0 in 0 W/m2
03:28 65.1 °F 58.8 °F 30 in Calm     80% 0 in 0 W/m2
03:33 65.1 °F 58.8 °F 30 in Calm     80% 0 in 0 W/m2
03:38 64.9 °F 58.6 °F 30 in Calm     80% 0 in 0 W/m2
03:43 64.8 °F 58.8 °F 30 in Calm     81% 0 in 0 W/m2
03:48 64.8 °F 58.8 °F 30 in Calm     81% 0 in 0 W/m2
03:53 64.6 °F 58.6 °F 30 in Calm     81% 0 in 0 W/m2
03:58 64.6 °F 59 °F 30 in Calm     82% 0 in 0 W/m2
04:03 64.6 °F 59 °F 30 in Calm     82% 0 in 0 W/m2
04:08 64.6 °F 59 °F 30 in Calm     82% 0 in 0 W/m2
04:13 64.4 °F 58.8 °F 30 in Calm     82% 0 in 0 W/m2
04:18 64.2 °F 58.6 °F 30 in Calm     82% 0 in 0 W/m2
04:23 64.2 °F 58.6 °F 30 in Calm     82% 0 in 0 W/m2
04:28 64 °F 58.5 °F 30 in Calm     82% 0 in 0 W/m2
04:33 63.9 °F 58.3 °F 30 in Calm     82% 0 in 0 W/m2
04:38 63.9 °F 58.6 °F 30 in Calm     83% 0 in 0 W/m2
04:43 63.7 °F 58.5 °F 30 in Calm     83% 0 in 0 W/m2
04:48 63.7 °F 58.5 °F 30 in Calm     83% 0 in 0 W/m2
04:53 63.5 °F 58.3 °F 30 in Calm     83% 0 in 0 W/m2
04:58 63.3 °F 58.1 °F 30 in Calm     83% 0 in 0 W/m2
05:03 63.1 °F 58.3 °F 30 in Calm     84% 0 in 0 W/m2
05:08 63.1 °F 58.3 °F 30 in Calm     84% 0 in 0 W/m2
05:13 63.1 °F 58.6 °F 30 in Calm     85% 0 in 0 W/m2
05:18 63.1 °F 58.6 °F 30 in Calm     85% 0 in 0 W/m2
05:23 63 °F 58.5 °F 30 in Calm     85% 0 in 0 W/m2
05:28 63 °F 58.1 °F 30 in Calm     84% 0 in 0 W/m2
05:34 62.8 °F 58.3 °F 30 in Calm     85% 0 in 0 W/m2
05:39 62.8 °F 58.3 °F 30 in Calm     85% 0 in 0 W/m2
05:44 62.6 °F 58.1 °F 30 in Calm     85% 0 in 0 W/m2
05:49 62.4 °F 57.9 °F 30 in Calm     85% 0 in 0 W/m2
05:54 62.2 °F 57.7 °F 30 in Calm     85% 0 in 0 W/m2
05:59 62.2 °F 57.9 °F 30 in Calm     86% 0 in 0 W/m2
06:04 62.2 °F 57.9 °F 30 in Calm     86% 0 in 0 W/m2
06:09 62.2 °F 57.9 °F 30 in Calm     86% 0 in 0 W/m2
06:14 62.2 °F 57.9 °F 30 in Calm     86% 0 in 5 W/m2
06:19 62.2 °F 57.9 °F 30 in Calm     86% 0 in 7 W/m2
06:24 62.4 °F 58.1 °F 30 in Calm     86% 0 in 9 W/m2
06:29 62.4 °F 58.1 °F 30 in Calm     86% 0 in 11 W/m2
06:34 62.2 °F 57.9 °F 30 in Calm     86% 0 in 11 W/m2
06:39 62.4 °F 58.1 °F 30 in Calm     86% 0 in 12 W/m2
06:44 62.4 °F 58.1 °F 30 in Calm     86% 0 in 14 W/m2
06:49 62.6 °F 58.3 °F 30 in Calm     86% 0 in 16 W/m2
06:54 62.8 °F 58.5 °F 30 in Calm     86% 0 in 18 W/m2
06:59 62.8 °F 58.5 °F 30 in Calm     86% 0 in 19 W/m2
07:04 63 °F 58.5 °F 30 in Calm     85% 0 in 19 W/m2
07:09 63.1 °F 58.6 °F 30 in Calm     85% 0 in 21 W/m2
07:14 63.3 °F 58.8 °F 30 in Calm     85% 0 in 23 W/m2
07:19 63.3 °F 58.8 °F 30 in Calm     85% 0 in 23 W/m2
07:24 63.5 °F 58.8 °F 30 in Calm     85% 0 in 25 W/m2
07:29 63.9 °F 59.2 °F 30 in Calm     85% 0 in 90 W/m2
07:34 64.2 °F 59.5 °F 30 in Calm     85% 0 in 104 W/m2
07:39 65.1 °F 60.1 °F 30 in Calm     84% 0 in 109 W/m2
07:44 66.7 °F 60.8 °F 30 in South 0.9 mph 2 mph 81% 0 in 132 W/m2
07:49 68.4 °F 61.2 °F 30 in ENE 2.9 mph 3 mph 78% 0 in 146 W/m2
07:54 69.3 °F 61.3 °F 30 in East 0.9 mph 2 mph 76% 0 in 156 W/m2
07:59 69.6 °F 61.3 °F 30 in NE 0.9 mph 2 mph 75% 0 in 179 W/m2
08:04 70.3 °F 61.7 °F 30 in NE 0.9 mph 2 mph 74% 0 in 195 W/m2
08:09 70.9 °F 61.3 °F 30 in ESE 2 mph 3 mph 72% 0 in 209 W/m2
08:14 71.4 °F 61.5 °F 30 in East 0.9 mph 2 mph 71% 0 in 221 W/m2
08:19 72 °F 61.7 °F 30 in East 0.9 mph 1 mph 70% 0 in 236 W/m2
08:24 72.3 °F 61.5 °F 30 in Calm     69% 0 in 223 W/m2
08:29 73.2 °F 62.1 °F 30 in Calm     68% 0 in 135 W/m2
08:34 74.1 °F 61.5 °F 30 in Calm     65% 0 in 44 W/m2
08:39 74.5 °F 61.9 °F 30 in Calm     65% 0 in 39 W/m2
08:44 74.7 °F 62.1 °F 30 in Calm     65% 0 in 39 W/m2
08:49 74.7 °F 62.1 °F 30 in Calm   1 mph 65% 0 in 37 W/m2
08:54 75.2 °F 62.2 °F 30 in NNE 0.9 mph 1 mph 64% 0 in 37 W/m2
08:59 75.4 °F 62.4 °F 30 in NNW 0.9 mph 1 mph 64% 0 in 37 W/m2
09:04 75 °F 62.1 °F 30 in Calm   1 mph 64% 0 in 39 W/m2
09:09 75.2 °F 62.2 °F 30 in Calm   1 mph 64% 0 in 39 W/m2
09:14 75.6 °F 62.6 °F 30 in ENE 0.9 mph 2 mph 64% 0 in 39 W/m2
09:19 76.3 °F 62.2 °F 30 in ENE 2 mph 2 mph 62% 0 in 37 W/m2
09:24 76.6 °F 62.2 °F 30 in ENE 2 mph 2 mph 61% 0 in 37 W/m2
09:29 77.2 °F 62.6 °F 30 in ENE 0.9 mph 2 mph 61% 0 in 37 W/m2
09:34 77.4 °F 61.9 °F 30 in ENE 2 mph 3 mph 59% 0 in 37 W/m2
09:39 78.1 °F 62.6 °F 30 in East 0.9 mph 2 mph 59% 0 in 39 W/m2
09:44 78.1 °F 61.5 °F 30 in NNW 0.9 mph 2 mph 57% 0 in 37 W/m2
09:49 78.3 °F 62.2 °F 30 in East 2 mph 2 mph 58% 0 in 39 W/m2
09:54 79 °F 62.4 °F 30 in East 2 mph 3 mph 57% 0 in 39 W/m2
09:59 79.5 °F 61.9 °F 30 in NE 0.9 mph 4 mph 55% 0 in 37 W/m2
10:04 79.9 °F 62.2 °F 30 in NE 0.9 mph 4 mph 55% 0 in 53 W/m2
10:09 80.1 °F 61.9 °F 30 in NNE 0.9 mph 3 mph 54% 0 in 86 W/m2
10:14 80.2 °F 62.1 °F 30 in NE 0.9 mph 4 mph 54% 0 in 480 W/m2
10:19 80.4 °F 62.2 °F 30 in ESE 0.9 mph 3 mph 54% 0 in 545 W/m2
10:24 81 °F 61.7 °F 30 in ENE 2.9 mph 3 mph 52% 0 in 554 W/m2
10:29 81.3 °F 62.1 °F 30 in ESE 2 mph 3 mph 52% 0 in 564 W/m2
10:34 81.7 °F 61.9 °F 30 in East 2 mph 3 mph 51% 0 in 580 W/m2
10:39 82 °F 62.6 °F 30 in SE 2 mph 3 mph 52% 0 in 592 W/m2
10:44 82.6 °F 63.1 °F 30 in ESE 2.9 mph 3 mph 52% 0 in 603 W/m2
10:49 82.9 °F 61.9 °F 30 in SE 2 mph 4 mph 49% 0 in 615 W/m2
10:54 83.5 °F 61.7 °F 30 in NE 2 mph 2 mph 48% 0 in 628 W/m2
10:59 83.5 °F 61.7 °F 30 in North 0.9 mph 3 mph 48% 0 in 636 W/m2
11:04 83.5 °F 61.7 °F 30 in NE 2 mph 4 mph 48% 0 in 649 W/m2
11:09 83.7 °F 61.9 °F 30 in ESE 2 mph 3 mph 48% 0 in 657 W/m2
11:14 84 °F 61.7 °F 30 in SE 2.9 mph 3 mph 47% 0 in 668 W/m2
11:19 84.7 °F 61 °F 30 in East 2 mph 6 mph 45% 0 in 680 W/m2
11:24 84.9 °F 59.9 °F 30 in NNW 2 mph 5 mph 43% 0 in 689 W/m2
11:29 84.9 °F 59.9 °F 30 in NNW 0.9 mph 3 mph 43% 0 in 698 W/m2
11:34 85.5 °F 61 °F 30 in Calm   3 mph 44% 0 in 707 W/m2
11:39 86.2 °F 61.7 °F 30 in ENE 0.9 mph 4 mph 44% 0 in 717 W/m2
11:44 86.4 °F 61.2 °F 30 in ENE 2 mph 5 mph 43% 0 in 722 W/m2
11:49 86.2 °F 60.4 °F 30 in ENE 2.9 mph 4 mph 42% 0 in 729 W/m2
11:54 86.4 °F 60.6 °F 30 in East 2.9 mph 7 mph 42% 0 in 740 W/m2
11:59 87.1 °F 61.2 °F 30 in East 4.9 mph 6 mph 42% 0 in 744 W/m2
12:04 87.3 °F 60.6 °F 30 in ENE 2.9 mph 5 mph 41% 0 in 752 W/m2
12:09 87.4 °F 60.8 °F 30 in SE 6 mph 6 mph 41% 0 in 754 W/m2
12:14 87.4 °F 60.8 °F 30 in ENE 4 mph 5 mph 41% 0 in 763 W/m2
12:19 87.4 °F 60.8 °F 30 in ENE 2.9 mph 6 mph 41% 0 in 777 W/m2
12:24 87.3 °F 59.9 °F 30 in WNW 2 mph 8 mph 40% 0 in 782 W/m2
12:29 87.1 °F 60.4 °F 30 in East 4 mph 7 mph 41% 0 in 788 W/m2
12:34 87.6 °F 60.3 °F 30 in Calm   8 mph 40% 0 in 795 W/m2
12:39 88.2 °F 60.1 °F 29.9 in NE 2 mph 3 mph 39% 0 in 793 W/m2
12:44 88.2 °F 60.1 °F 29.9 in Calm   3 mph 39% 0 in 798 W/m2
12:49 88.9 °F 60.8 °F 29.9 in East 4 mph 8 mph 39% 0 in 803 W/m2
12:54 89.1 °F 60.8 °F 29.9 in East 0.9 mph 5 mph 39% 0 in 803 W/m2
12:59 89.1 °F 60.8 °F 29.9 in ESE 2 mph 4 mph 39% 0 in 809 W/m2
13:04 89.6 °F 60.6 °F 29.9 in East 2 mph 9 mph 38% 0 in 812 W/m2
13:09 89.2 °F 60.3 °F 29.9 in East 2.9 mph 6 mph 38% 0 in 814 W/m2
13:14 89.4 °F 60.4 °F 29.9 in ESE 4 mph 9 mph 38% 0 in 812 W/m2
13:19 89.4 °F 60.4 °F 29.9 in East 2.9 mph 7 mph 38% 0 in 810 W/m2
13:24 89.2 °F 60.3 °F 29.9 in East 2.9 mph 6 mph 38% 0 in 816 W/m2
13:29 89.1 °F 60.1 °F 29.9 in NNE 0.9 mph 3 mph 38% 0 in 817 W/m2
13:34 89.4 °F 60.4 °F 29.9 in East 2 mph 3 mph 38% 0 in 821 W/m2
13:39 89.8 °F 60.8 °F 29.9 in South 0.9 mph 2 mph 38% 0 in 824 W/m2
13:44 90.3 °F 60.4 °F 29.9 in NNW 4 mph 4 mph 37% 0 in 826 W/m2
13:49 89.8 °F 60.8 °F 29.9 in ESE 0.9 mph 2 mph 38% 0 in 826 W/m2
13:54 90.1 °F 60.4 °F 29.9 in ENE 2 mph 7 mph 37% 0 in 826 W/m2
13:59 90.9 °F 61 °F 29.9 in East 2.9 mph 7 mph 37% 0 in 824 W/m2
14:04 90.7 °F 60.8 °F 29.9 in NE 2 mph 4 mph 37% 0 in 821 W/m2
14:09 90.7 °F 60.1 °F 29.9 in ENE 0.9 mph 5 mph 36% 0 in 821 W/m2
14:14 90.7 °F 60.1 °F 29.9 in South 0.9 mph 6 mph 36% 0 in 817 W/m2
14:19 91 °F 61.2 °F 29.9 in NE 2 mph 6 mph 37% 0 in 821 W/m2
14:25 91 °F 60.4 °F 29.9 in ESE 0.9 mph 9 mph 36% 0 in 824 W/m2
14:30 91.2 °F 60.6 °F 29.9 in Calm   7 mph 36% 0 in 824 W/m2
14:35 91.4 °F 60.6 °F 29.9 in ESE 2 mph 4 mph 36% 0 in 821 W/m2
14:40 91.6 °F 60.1 °F 29.9 in East 2 mph 5 mph 35% 0 in 817 W/m2
14:45 91.6 °F 60.1 °F 29.9 in ESE 0.9 mph 5 mph 35% 0 in 812 W/m2
14:50 91.8 °F 60.3 °F 29.9 in ESE 2.9 mph 9 mph 35% 0 in 810 W/m2
14:55 91.9 °F 60.4 °F 29.9 in ENE 4.9 mph 7 mph 35% 0 in 807 W/m2
15:00 92.1 °F 60.4 °F 29.9 in ENE 2 mph 8 mph 35% 0 in 800 W/m2
15:05 91.8 °F 60.3 °F 29.9 in NNW 8.1 mph 8 mph 35% 0 in 798 W/m2
15:10 91.6 °F 60.8 °F 29.9 in NNW 0.9 mph 5 mph 36% 0 in 795 W/m2
15:15 91.2 °F 60.6 °F 29.9 in SE 4 mph 4 mph 36% 0 in 784 W/m2
15:20 91.8 °F 61 °F 29.9 in East 6 mph 8 mph 36% 0 in 777 W/m2
15:25 91.9 °F 60.4 °F 29.9 in SSE 2 mph 7 mph 35% 0 in 768 W/m2
15:30 92.1 °F 59.7 °F 29.9 in West 0.9 mph 4 mph 34% 0 in 768 W/m2
15:35 92.5 °F 60.1 °F 29.9 in ENE 6 mph 10 mph 34% 0 in 765 W/m2
15:40 92.8 °F 59.5 °F 29.9 in NE 2.9 mph 4 mph 33% 0 in 761 W/m2
15:45 93.2 °F 60.6 °F 29.9 in NE 0.9 mph 2 mph 34% 0 in 749 W/m2
15:50 93.4 °F 59.9 °F 29.9 in NNW 2.9 mph 4 mph 33% 0 in 745 W/m2
15:55 93.6 °F 59.2 °F 29.9 in ENE 4.9 mph 6 mph 32% 0 in 745 W/m2
16:00 93.4 °F 59.2 °F 29.9 in NE 2 mph 4 mph 32% 0 in 724 W/m2
16:05 93 °F 59.7 °F 29.9 in ENE 2.9 mph 6 mph 33% 0 in 719 W/m2
16:10 93.4 °F 59.9 °F 29.9 in SE 2.9 mph 8 mph 33% 0 in 705 W/m2
16:15 93.4 °F 59.9 °F 29.9 in SE 0.9 mph 2 mph 33% 0 in 694 W/m2
16:20 93.7 °F 59.4 °F 29.9 in Calm   4 mph 32% 0 in 693 W/m2
16:25 94.1 °F 59.7 °F 29.9 in NNW 2 mph 3 mph 32% 0 in 684 W/m2
16:30 94.1 °F 59.7 °F 29.9 in NNW 0.9 mph 4 mph 32% 0 in 673 W/m2
16:35 94.3 °F 59 °F 29.9 in North 0.9 mph 3 mph 31% 0 in 661 W/m2
16:40 94.5 °F 59.2 °F 29.9 in Calm   3 mph 31% 0 in 654 W/m2
16:45 94.5 °F 59.2 °F 29.9 in ENE 2.9 mph 4 mph 31% 0 in 643 W/m2
16:50 94.6 °F 59.4 °F 29.9 in NE 2 mph 2 mph 31% 0 in 638 W/m2
16:55 95 °F 60.4 °F 29.9 in ESE 4 mph 8 mph 32% 0 in 631 W/m2
17:00 95.2 °F 59.7 °F 29.9 in ENE 2.9 mph 4 mph 31% 0 in 619 W/m2
17:05 95.2 °F 59.7 °F 29.9 in NNW 2.9 mph 8 mph 31% 0 in 606 W/m2
17:10 95.4 °F 59.9 °F 29.9 in ESE 2 mph 6 mph 31% 0 in 592 W/m2
17:15 95.5 °F 60.1 °F 29.9 in ESE 2 mph 3 mph 31% 0 in 585 W/m2
17:20 95.5 °F 59.2 °F 29.9 in East 0.9 mph 6 mph 30% 0 in 571 W/m2
17:25 95.5 °F 60.1 °F 29.9 in ESE 2 mph 4 mph 31% 0 in 563 W/m2
17:30 95.7 °F 59.4 °F 29.9 in SE 0.9 mph 2 mph 30% 0 in 550 W/m2
17:35 95.4 °F 58.1 °F 29.9 in West 2 mph 3 mph 29% 0 in 536 W/m2
17:40 95.4 °F 59 °F 29.9 in WNW 2.9 mph 5 mph 30% 0 in 524 W/m2
17:45 95.2 °F 58.8 °F 29.9 in NNW 0.9 mph 3 mph 30% 0 in 512 W/m2
17:50 95 °F 58.6 °F 29.9 in WNW 0.9 mph 2 mph 30% 0 in 496 W/m2
17:55 95.2 °F 58.8 °F 29.9 in ESE 2 mph 6 mph 30% 0 in 485 W/m2
18:00 95.2 °F 59.7 °F 29.9 in North 0.9 mph 3 mph 31% 0 in 471 W/m2
18:05 95.4 °F 59 °F 29.9 in NW 0.9 mph 6 mph 30% 0 in 455 W/m2
18:10 95.2 °F 58.8 °F 29.9 in East 2.9 mph 7 mph 30% 0 in 443 W/m2
18:15 94.8 °F 58.5 °F 29.9 in WSW 0.9 mph 2 mph 30% 0 in 429 W/m2
18:20 94.6 °F 59.4 °F 29.9 in Calm   7 mph 31% 0 in 415 W/m2
18:25 94.6 °F 59.4 °F 29.9 in ENE 2 mph 2 mph 31% 0 in 403 W/m2
18:30 94.6 °F 58.5 °F 29.9 in ENE 4 mph 4 mph 30% 0 in 388 W/m2
18:35 94.6 °F 58.5 °F 29.9 in East 0.9 mph 2 mph 30% 0 in 369 W/m2
18:40 94.6 °F 59.4 °F 29.9 in Calm   3 mph 31% 0 in 355 W/m2
18:45 94.6 °F 58.5 °F 29.9 in NE 0.9 mph 2 mph 30% 0 in 343 W/m2
18:50 94.6 °F 59.4 °F 29.9 in Calm   2 mph 31% 0 in 322 W/m2
18:55 94.8 °F 58.5 °F 29.9 in ESE 2.9 mph 4 mph 30% 0 in 295 W/m2
19:00 94.6 °F 58.5 °F 29.9 in East 2 mph 2 mph 30% 0 in 234 W/m2
19:05 94.6 °F 59.4 °F 29.9 in East 0.9 mph 1 mph 31% 0 in 51 W/m2
19:10 94.8 °F 58.5 °F 29.9 in Calm   2 mph 30% 0 in 49 W/m2
19:15 94.8 °F 59.5 °F 29.9 in Calm   2 mph 31% 0 in 47 W/m2
19:20 94.8 °F 58.5 °F 29.9 in Calm   2 mph 30% 0 in 46 W/m2
19:25 95.2 °F 57.9 °F 29.9 in WSW 2 mph 2 mph 29% 0 in 44 W/m2
19:30 95.2 °F 58.8 °F 29.9 in Calm   1 mph 30% 0 in 40 W/m2
19:35 94.8 °F 58.5 °F 29.9 in WNW 0.9 mph 3 mph 30% 0 in 39 W/m2
19:40 94.6 °F 57.4 °F 29.9 in WSW 2 mph 3 mph 29% 0 in 37 W/m2
19:45 94.3 °F 59.9 °F 29.9 in Calm   1 mph 32% 0 in 35 W/m2
19:50 94.3 °F 59.9 °F 29.9 in Calm     32% 0 in 33 W/m2
19:55 93.9 °F 60.4 °F 29.9 in Calm   1 mph 33% 0 in 32 W/m2
20:00 93.9 °F 62.1 °F 29.9 in WSW 0.9 mph 2 mph 35% 0 in 32 W/m2
20:05 93.7 °F 61.2 °F 29.9 in WSW 0.9 mph 2 mph 34% 0 in 30 W/m2
20:10 93.2 °F 60.6 °F 29.9 in Calm   2 mph 34% 0 in 28 W/m2
20:15 92.5 °F 60.8 °F 29.9 in WSW 0.9 mph 2 mph 35% 0 in 26 W/m2
20:21 91.9 °F 60.4 °F 29.9 in WSW 0.9 mph 2 mph 35% 0 in 25 W/m2
20:26 91.4 °F 60.6 °F 29.9 in WSW 0.9 mph 1 mph 36% 0 in 23 W/m2
20:31 91 °F 61.2 °F 29.9 in WSW 0.9 mph 2 mph 37% 0 in 21 W/m2
20:36 90.5 °F 60.6 °F 29.9 in Calm   2 mph 37% 0 in 18 W/m2
20:41 90 °F 61 °F 29.9 in Calm   2 mph 38% 0 in 16 W/m2
20:46 89.2 °F 60.3 °F 29.9 in Calm   1 mph 38% 0 in 14 W/m2
20:51 88.7 °F 59.9 °F 29.9 in Calm   2 mph 38% 0 in 12 W/m2
20:56 87.8 °F 59 °F 29.9 in WSW 2 mph 2 mph 38% 0 in 9 W/m2
21:01 86.9 °F 60.4 °F 29.9 in Calm   1 mph 41% 0 in 5 W/m2
21:06 86.2 °F 59.7 °F 29.9 in Calm     41% 0 in 0 W/m2
21:11 85.5 °F 59.7 °F 29.9 in Calm     42% 0 in 0 W/m2
21:16 84.7 °F 59.2 °F 29.9 in Calm     42% 0 in 0 W/m2
21:21 84 °F 59.7 °F 29.9 in Calm   1 mph 44% 0 in 0 W/m2
21:26 83.5 °F 59.4 °F 29.9 in Calm   2 mph 44% 0 in 0 W/m2
21:31 82.8 °F 59.2 °F 29.9 in Calm   1 mph 45% 0 in 0 W/m2
21:36 82.4 °F 59.5 °F 29.9 in Calm     46% 0 in 0 W/m2
21:41 81.9 °F 59 °F 29.9 in WSW 0.9 mph 1 mph 46% 0 in 0 W/m2
21:46 81.5 °F 58.6 °F 29.9 in Calm     46% 0 in 0 W/m2
21:51 81.1 °F 59 °F 29.9 in Calm     47% 0 in 0 W/m2
21:56 80.8 °F 58.6 °F 29.9 in Calm     47% 0 in 0 W/m2
22:01 80.4 °F 59 °F 29.9 in Calm     48% 0 in 0 W/m2
22:06 80.1 °F 58.6 °F 29.9 in Calm     48% 0 in 0 W/m2
22:11 79.9 °F 58.5 °F 29.9 in Calm     48% 0 in 0 W/m2
22:16 79.5 °F 58.6 °F 29.9 in Calm     49% 0 in 0 W/m2
22:21 79.2 °F 58.3 °F 29.9 in Calm     49% 0 in 0 W/m2
22:26 79 °F 58.8 °F 29.9 in Calm     50% 0 in 0 W/m2
22:31 78.6 °F 58.5 °F 29.9 in Calm     50% 0 in 0 W/m2
22:36 78.4 °F 58.3 °F 29.9 in Calm   1 mph 50% 0 in 0 W/m2
22:41 78.3 °F 58.1 °F 29.9 in Calm     50% 0 in 0 W/m2
22:46 77.9 °F 57.7 °F 29.9 in Calm     50% 0 in 0 W/m2
22:51 77.7 °F 58.1 °F 29.9 in Calm     51% 0 in 0 W/m2
22:56 77.5 °F 57.9 °F 29.9 in Calm     51% 0 in 0 W/m2
23:01 77.4 °F 58.3 °F 29.9 in Calm   1 mph 52% 0 in 0 W/m2
23:06 77.2 °F 58.3 °F 29.9 in Calm   1 mph 52% 0 in 0 W/m2
23:11 76.8 °F 58.5 °F 29.9 in Calm     53% 0 in 0 W/m2
23:16 76.6 °F 58.3 °F 29.9 in Calm     53% 0 in 0 W/m2
23:21 76.5 °F 58.1 °F 29.9 in Calm   1 mph 53% 0 in 0 W/m2
23:26 76.3 °F 58.5 °F 29.9 in Calm   1 mph 54% 0 in 0 W/m2
23:31 75.9 °F 58.1 °F 29.9 in Calm     54% 0 in 0 W/m2
23:36 75.7 °F 57.9 °F 29.9 in Calm   1 mph 54% 0 in 0 W/m2
23:41 75.6 °F 57.7 °F 29.9 in Calm     54% 0 in 0 W/m2
23:46 75.4 °F 58.1 °F 29.9 in Calm     55% 0 in 0 W/m2
23:51 75.2 °F 58.5 °F 29.9 in Calm     56% 0 in 0 W/m2
23:56 75 °F 58.3 °F 29.9 in Calm     56% 0 in 0 W/m2
Juneau County Weather
Compliments of Weather Underground - 4 mb